www.pogodaiklimat.ru

Погода и климат >> Архив погоды >> Германия >> Маяк Alte Weser


ПОГОДА на Маяке Alte Weser

  • Прогноз погоды на Маяке Alte Weser
  • Монитор погоды на Маяке Alte Weser

АРХИВ ПОГОДЫ на Маяке Alte Weser

Время (UTC), дата Ветер
(напр.,м/с)
 
Видим.   Явления Облачность Т
(С)
Тd
(С)
f
(%)
Тe
(С)
Тes
(С)
Комфортность P
(гПа)
Po
(гПа)
Тmin
(С)
Tmax
(С)
R
(мм)
R24
(мм)
S
(см)
13 14.07 З 7 н/о н/о +14.3 +11.6 84 +12 +12 1018.8 1015.1
14 14.07 СЗ 8 н/о н/о +14.4 +12.0 85 +12 +12 1018.8 1015.1
15 14.07 СЗ 8 н/о н/о +14.7 +11.6 82 +12 +12 1018.8 1015.1
16 14.07 СЗ 7 н/о н/о +14.3 +12.3 88 +12 +12 1018.6 1014.9
17 14.07 СЗ 9 н/о н/о +14.3 +12.0 86 +12 +12 1018.5 1014.8
18 14.07 СЗ 10 н/о н/о +14.2 +11.7 85 +11 +11 1018.5 1014.8 +13.5 +14.7
19 14.07 СЗ 10 н/о н/о +14.2 +10.7 79 +11 +11 1018.6 1014.8
20 14.07 СЗ 8 н/о н/о +14.1 +10.6 79 +12 +12 1018.8 1015.1
21 14.07 СЗ 9 н/о н/о +14.1 +11.2 83 +11 +11 1018.9 1015.1
22 14.07 СЗ 8 н/о н/о +13.9 +10.8 82 +11 +11 1018.8 1015.1
23 14.07 СЗ 8 н/о н/о +13.7 +10.4 80 +11 +11 1018.8 1015.1
00 15.07 СЗ 8 н/о н/о +13.8 +10.5 80 +11 +11 1018.6 1014.9
01 15.07 СЗ 8 н/о н/о +13.9 +10.5 80 +11 +11 1018.2 1014.4
02 15.07 СЗ 8 н/о н/о +13.8 +10.5 80 +11 +11 1018.0 1014.3
03 15.07 СЗ 8 н/о н/о +13.7 +10.2 79 +11 +11 1017.7 1014.0
04 15.07 СЗ 9 н/о н/о +13.4 +9.3 76 +11 +11 1017.7 1013.9
05 15.07 СЗ 11 н/о н/о +13.5 +9.5 77 +10 +10 1017.4 1013.7
06 15.07 З 8 н/о н/о +13.6 +9.3 75 +11 +11 1017.6 1013.8 +13.4 +14.7
07 15.07 СЗ 9 н/о н/о +13.5 +9.3 76 +11 +11 1017.6 1013.9
08 15.07 СЗ 9 н/о н/о +13.9 +9.5 75 +11 +11 1017.6 1013.9
09 15.07 З 9 н/о н/о +13.6 +9.1 74 +11 +11 1017.6 1013.8
10 15.07 СЗ 10 н/о н/о +13.9 +8.2 68 +11 +11 1017.7 1013.9
11 15.07 СЗ 10
{13}
н/о н/о +14.0 +8.8 71 +11 +11 1017.6 1013.8
12 15.07 З 11
{13}
н/о н/о +14.0 +9.1 72 +11 +11 1017.6 1013.8
13 15.07 З 11
{13}
н/о н/о +14.4 +9.6 73 +12 +12 1017.6 1013.9
14 15.07 З 11
{13}
н/о н/о +14.6 +11.0 79 +12 +12 1017.3 1013.6
15 15.07 СЗ 12
{14}
н/о н/о +14.8 +10.9 77 +12 +12 1017.1 1013.4
16 15.07 СЗ 11
{13}
н/о н/о +14.7 +11.1 79 +12 +12 1017.1 1013.4
17 15.07 СЗ 11
{14}
н/о н/о +14.5 +11.2 81 +12 +12 1017.0 1013.3
18 15.07 СЗ 12
{14}
н/о н/о +14.6 +11.2 80 +12 +12 1016.9 1013.2 +13.3 +14.9
19 15.07 СЗ 12
{14}
н/о н/о +14.5 +11.6 83 +12 +12 1016.9 1013.1
20 15.07 СЗ 12
{15}
н/о н/о +14.5 +11.5 82 +12 +12 1016.8 1013.1
21 15.07 СЗ 12
{15}
н/о н/о +14.2 +11.8 85 +11 +11 1017.0 1013.3
22 15.07 СЗ 11
{14}
н/о н/о +14.2 +11.8 85 +11 +11 1016.7 1013.0
23 15.07 СЗ 11
{13}
н/о н/о +14.1 +12.2 88 +11 +11 1016.6 1012.9
00 16.07 СЗ 10
{15}
н/о н/о +13.9 +12.5 91 +11 +11 1016.5 1012.7
01 16.07 СЗ 11
{13}
н/о н/о +13.9 +12.7 92 +11 +11 1016.4 1012.7
02 16.07 СЗ 10
{13}
н/о н/о +13.8 +13.8 100 +11 +11 1016.2 1012.5
03 16.07 СЗ 11
{13}
н/о н/о +13.7 +13.1 96 +10 +10 1015.8 1012.1
04 16.07 СЗ 11
{15}
н/о н/о +13.8 +13.4 97 +11 +11 1015.6 1011.9
05 16.07 СЗ 12
{13}
н/о н/о +13.8 +13.0 95 +10 +10 1015.5 1011.8
06 16.07 СЗ 11
{15}
н/о н/о +14.3 +13.0 92 +11 +11 1015.6 1011.8 +13.4 +14.8
07 16.07 СЗ 12
{14}
н/о н/о +13.9 +13.9 100 +11 +11 1015.8 1012.1
08 16.07 СЗ 11
{14}
н/о н/о +13.9 +13.8 99 +11 +11 1016.0 1012.3
09 16.07 СЗ 11
{14}
н/о н/о +14.1 +13.5 96 +11 +11 1016.1 1012.4
10 16.07 СЗ 10
{13}
н/о н/о +14.2 +13.5 96 +11 +11 1016.1 1012.4
11 16.07 СЗ 10
{13}
н/о н/о +14.6 +12.6 88 +12 +12 1016.4 1012.7
12 16.07 СЗ 10
{14}
н/о н/о +14.7 +12.3 86 +12 +12 1016.4 1012.7
13 16.07 СЗ 11 н/о н/о +14.8 +12.2 84 +12 +12 1016.6 1012.9
14 16.07 СЗ 10 н/о н/о +14.8 +12.4 86 +12 +12 1016.5 1012.8
15 16.07 СЗ 9
{13}
н/о н/о +14.8 +12.3 85 +12 +12 1016.5 1012.8
17 16.07 СЗ 8 н/о н/о +14.4 +12.0 85 +12 +12 1016.7 1013.0
18 16.07 СЗ 7
{13}
н/о н/о +14.4 +11.8 84 +12 +12 1016.7 1013.0 +13.6 +15.1
19 16.07 З 6 н/о н/о +14.5 +11.7 83 +13 +13 1016.8 1013.1
20 16.07 СЗ 7 н/о н/о +14.3 +11.2 82 +12 +12 1016.8 1013.1
21 16.07 СЗ 8 н/о н/о +14.3 +11.2 82 +12 +12 1016.7 1013.0
22 16.07 СЗ 7 н/о н/о +14.0 +10.8 81 +12 +12 1016.8 1013.0
23 16.07 СЗ 6 н/о н/о +14.0 +11.1 83 +12 +12 1016.9 1013.2
00 17.07 СЗ 7 н/о н/о +14.0 +10.6 80 +12 +12 1016.7 1013.0
01 17.07 СЗ 6 н/о н/о +13.7 +10.4 80 +12 +12 1016.5 1012.7
02 17.07 СЗ 6 н/о н/о +13.6 +10.6 82 +11 +11 1016.3 1012.5
03 17.07 С 4 н/о н/о +13.8 +11.0 83 +12 +12 1016.1 1012.4
04 17.07 СЗ 5 н/о н/о +13.7 +10.6 82 +12 +12 1016.1 1012.3
05 17.07 СЗ 4 н/о н/о +13.8 +11.0 83 +12 +12 1015.7 1012.0
06 17.07 СЗ 4 н/о н/о +14.0 +11.2 83 +13 +13 1015.8 1012.1 +13.5 +14.7
07 17.07 СЗ 4 н/о н/о +14.2 +11.6 84 +13 +13 1016.0 1012.2
08 17.07 СЗ 3 н/о н/о +14.3 +11.5 83 +13 +13 1016.0 1012.2
09 17.07 СЗ 3 н/о н/о +14.5 +11.8 84 +14 +14 1016.0 1012.3
10 17.07 СЗ 3 н/о н/о +14.6 +11.7 83 +14 +14 1016.0 1012.3
11 17.07 С 2 н/о н/о +14.8 +12.1 84 +14 +14 1016.2 1012.5
12 17.07 СЗ 2 н/о н/о +14.8 +12.5 86 +14 +14 1016.2 1012.5
13 17.07 СЗ 1 н/о н/о +15.2 +12.7 85 +16 +16 1015.9 1012.2
14 17.07 штиль 0 н/о н/о +16.1 +13.1 82 +16 +16 1015.8 1012.1
15 17.07 СВ 1 н/о н/о +16.7 +13.5 81 +18 +18 1015.4 1011.7
16 17.07 С 2 н/о н/о +15.5 +13.0 85 +15 +15 1015.0 1011.4
17 17.07 С 2 н/о н/о +15.6 +13.1 85 +15 +15 1014.5 1010.8
18 17.07 СВ 2 н/о н/о +15.9 +13.2 84 +16 +16 1014.3 1010.6 +13.7 +17.5
19 17.07 СВ 2 н/о н/о +15.8 +13.7 87 +16 +16 1014.1 1010.4
21 17.07 СВ 2 н/о н/о +15.4 +14.2 93 +15 +15 1014.1 1010.4
22 17.07 СВ 2 н/о н/о +15.3 +14.4 94 +15 +15 1014.0 1010.3
23 17.07 В 3 н/о н/о +15.3 +14.4 94 +15 +15 1013.8 1010.2
00 18.07 В 3 н/о н/о +15.4 +14.5 94 +15 +15 1013.7 1010.0
01 18.07 ЮВ 3 н/о н/о +15.3 +14.2 93 +15 +15 1013.4 1009.7
02 18.07 ЮВ 4 н/о н/о +15.4 +14.5 94 +14 +14 1012.9 1009.2
03 18.07 ЮВ 4 н/о н/о +15.4 +14.0 91 +14 +14 1012.6 1008.9
04 18.07 ЮВ 5 н/о н/о +15.5 +13.7 89 +14 +14 1012.5 1008.8
05 18.07 ЮВ 5 н/о н/о +15.6 +13.6 88 +14 +14 1012.4 1008.7
06 18.07 Ю 5 н/о н/о +15.4 +14.5 94 +14 +14 1012.2 1008.5 +15.2 +16.7
07 18.07 ЮВ 5 н/о н/о +16.4 +13.4 82 +15 +15 1011.8 1008.2
08 18.07 ЮВ 5 н/о н/о +17.5 +13.4 77 +17 +17 1011.7 1008.1
09 18.07 ЮВ 5 н/о н/о +17.8 +14.2 79 +17 +17 1011.5 1007.9
10 18.07 ЮВ 4 н/о н/о +19.1 +14.7 76 +20 +20 1011.5 1007.9
11 18.07 ЮВ 3 н/о н/о +20.5 +14.1 67 +23 +23 комфорт 1011.3 1007.7
12 18.07 ЮВ 4 н/о н/о +20.4 +12.7 61 +23 +23 комфорт 1011.0 1007.4
13 18.07 В 4 н/о н/о +20.5 +11.9 58 +23 +23 комфорт 1010.8 1007.2
14 18.07 В 4 н/о н/о +21.2 +12.4 57 +23 +23 комфорт 1010.6 1007.0
15 18.07 В 6 н/о н/о +21.5 +12.7 57 +24 +24 комфорт 1010.0 1006.4
16 18.07 В 6 н/о н/о +21.4 +12.1 55 +24 +24 комфорт 1009.7 1006.1
17 18.07 В 6 н/о н/о +20.4 +15.2 72 +23 +23 комфорт 1009.3 1005.7
18 18.07 В 8 н/о н/о +21.3 +14.5 65 +24 +24 комфорт 1009.0 1005.4 +15.3 +21.8
19 18.07 ЮЗ 7 н/о н/о +19.8 +14.5 71 +21 +21 комфорт 1009.4 1005.7
20 18.07 СЗ 9 н/о н/о +17.8 +15.5 86 +17 +17 1010.0 1006.3
21 18.07 СЗ 9 н/о н/о +17.0 +14.6 86 +16 +16 1010.3 1006.6
22 18.07 СЗ 6 н/о н/о +16.5 +15.4 93 +15 +15 1010.4 1006.8
23 18.07 СЗ 5 н/о н/о +16.7 +15.7 94 +16 +16 1010.7 1007.0
00 19.07 С 4 н/о н/о +16.3 +15.5 95 +16 +16 1010.5 1006.8
01 19.07 С 2 н/о н/о +16.3 +15.3 94 +16 +16 1010.3 1006.6
02 19.07 ЮВ 1 н/о н/о +16.2 +15.1 93 +17 +17 1010.5 1006.9
03 19.07 Ю 4 н/о н/о +16.5 +15.4 93 +16 +16 1010.6 1007.0
04 19.07 Ю 5 н/о н/о +16.2 +16.1 99 +15 +15 1010.6 1006.9
05 19.07 З 7 н/о н/о +16.3 +15.9 97 +15 +15 1010.9 1007.3
06 19.07 З 7 н/о н/о +16.1 +15.6 97 +15 +15 1011.3 1007.7 +16.0 +21.6
07 19.07 З 7 н/о н/о +16.3 +14.3 88 +15 +15 1012.0 1008.4
08 19.07 СЗ 6 н/о н/о +16.1 +14.3 89 +15 +15 1012.5 1008.9
09 19.07 З 5 н/о н/о +15.8 +14.4 91 +15 +15 1013.1 1009.5
10 19.07 З 5 н/о н/о +15.8 +13.4 86 +15 +15 1013.4 1009.8
11 19.07 З 4 н/о н/о +16.0 +13.3 84 +15 +15 1013.9 1010.2
12 19.07 З 3 н/о н/о +16.3 +13.1 81 +16 +16 1014.1 1010.4
13 19.07 СЗ 2 н/о н/о +16.7 +13.0 79 +17 +17 1014.3 1010.6
14 19.07 СЗ 2 н/о н/о +17.2 +12.8 75 +18 +18 1014.4 1010.8
15 19.07 СВ 3 н/о н/о +17.3 +12.5 73 +17 +17 1014.1 1010.5
16 19.07 СВ 3 н/о н/о +18.4 +13.1 71 +19 +19 1013.6 1010.0
17 19.07 В 4 н/о н/о +18.2 +11.9 67 +18 +18 1013.6 1010.0
18 19.07 В 4 н/о н/о +18.3 +13.5 74 +19 +19 1013.7 1010.1 +15.6 +19.0
19 19.07 В 5 н/о н/о +18.0 +12.8 72 +18 +18 1013.6 1010.0
20 19.07 В 6 н/о н/о +18.0 +13.7 76 +17 +17 1013.5 1009.9
21 19.07 В 6 н/о н/о +18.0 +13.3 74 +17 +17 1013.7 1010.1
22 19.07 ЮВ 7 н/о н/о +18.1 +12.4 69 +17 +17 1013.3 1009.7
23 19.07 ЮВ 8 н/о н/о +18.3 +11.6 65 +18 +18 1013.1 1009.5
00 20.07 Ю 8 н/о н/о +18.6 +11.0 61 +18 +18 1012.7 1009.1
01 20.07 Ю 8 н/о н/о +18.8 +11.1 61 +19 +19 1012.1 1008.4
02 20.07 Ю 8 н/о н/о +18.6 +11.9 65 +18 +18 1011.8 1008.2
03 20.07 ЮВ 9 н/о н/о +18.4 +12.1 67 +18 +18 1011.4 1007.7
04 20.07 ЮВ 10 н/о н/о +18.1 +12.2 68 +17 +17 1011.1 1007.4
05 20.07 Ю 10 н/о н/о +17.8 +13.3 75 +17 +17 1010.8 1007.1
06 20.07 ЮВ 10 н/о н/о +18.2 +13.4 74 +17 +17 1010.5 1006.8 +17.7 +18.9
07 20.07 ЮВ 10 н/о н/о +18.6 +13.8 74 +18 +18 1010.1 1006.5
08 20.07 Ю 10 н/о н/о +19.5 +14.4 72 +20 +20 1009.9 1006.2
09 20.07 Ю 8 н/о н/о +20.7 +15.3 71 +23 +23 комфорт 1009.6 1006.0
10 20.07 Ю 10 н/о н/о +21.9 +15.2 66 +25 +25 комфорт 1009.1 1005.5
11 20.07 Ю 11 н/о н/о +23.1 +15.2 61 +27 +27 душно 1008.8 1005.2
12 20.07 Ю 9 н/о н/о +23.4 +15.7 62 +28 +28 душно 1008.9 1005.4
13 20.07 З 14
{16}
н/о н/о +18.7 +16.4 86 +18 +18 1009.4 1005.8
14 20.07 ЮЗ 8
{17}
н/о н/о +19.2 +16.1 82 +20 +20 1008.9 1005.3
15 20.07 ЮЗ 5
{17}
н/о н/о +18.8 +15.4 81 +20 +20 1009.4 1005.7
16 20.07 Ю 4 н/о н/о +18.9 +15.8 82 +20 +20 1009.9 1006.3
17 20.07 ЮВ 4 н/о н/о +19.9 +15.4 75 +22 +22 комфорт 1009.9 1006.3
18 20.07 Ю 4
{17}
н/о н/о +20.0 +14.4 70 +22 +22 комфорт 1009.8 1006.1 +17.7 +23.9
19 20.07 Ю 7 н/о н/о +19.3 +16.9 86 +21 +21 комфорт 1009.8 1006.2
20 20.07 Ю 8 н/о н/о +19.7 +17.2 85 +21 +21 комфорт 1010.1 1006.5
21 20.07 Ю 9 н/о н/о +19.1 +17.9 93 +20 +20 1010.5 1006.8
22 20.07 Ю 7 н/о н/о +18.7 +17.5 93 +19 +19 1011.1 1007.5
23 20.07 Ю 7 н/о н/о +18.1 +17.1 94 +18 +18 1011.3 1007.6
00 21.07 Ю 7 н/о н/о +17.7 +17.2 97 +17 +17 1011.4 1007.7
01 21.07 ЮЗ 7 н/о н/о +17.8 +16.8 94 +17 +17 1011.6 1008.0
02 21.07 ЮЗ 9 н/о н/о +17.6 +16.5 93 +16 +16 1011.6 1007.9
03 21.07 ЮЗ 9 н/о н/о +17.2 +16.4 95 +16 +16 1012.1 1008.4
05 21.07 ЮЗ 10
{13}
н/о н/о +16.9 +15.5 91 +15 +15 1013.0 1009.4
06 21.07 ЮЗ 10
{13}
н/о н/о +16.9 +15.5 91 +15 +15 1014.0 1010.3 +16.7 +20.6
07 21.07 ЮЗ 13
{14}
н/о н/о +17.4 +15.3 87 +16 +16 1014.5 1010.8
08 21.07 З 12
{14}
н/о н/о +17.6 +15.5 87 +16 +16 1015.4 1011.7
09 21.07 З 13
{14}
н/о н/о +17.4 +15.3 87 +16 +16 1016.3 1012.6
10 21.07 З 13
{15}
н/о н/о +17.2 +15.0 87 +15 +15 1017.2 1013.5
11 21.07 З 13
{15}
н/о н/о +17.2 +14.7 85 +15 +15 1018.1 1014.4
12 21.07 З 12
{15}
н/о н/о +17.1 +14.9 87 +15 +15 1019.0 1015.3

 

Местоположение метеостанции Маяк Alte Weser (Германия): широта 53.87 долгота 8.13 высота над уровнем моря 32 м.

В архиве по умолчанию представлена погода на Маяке Alte Weser за последнюю неделю. Архивные данные за месяц целиком и за предыдущие месяцы, начиная с января 2011 года, Вы можете получить, выбрав интересующий диапазон дат из раскрывающегося списка и нажав кнопку "Ввод!".


*Определитесь, кто Вы:
робот инопланетянин человек

Внимание! Время в таблицах - всемирное. Для получения местного времени необходимо прибавить поправку, которая равна 1 ч.

Смотрите также архив погоды в соседних городах и на ближайших метеорологических станциях:

Погода в Нордхольце (Германия) (37 км)
Погода в Куксхавене (Германия) (37 км)
Погода в Гельголанде (Германия) (38 км)
Погода на Базе ВВС Wittmundhaven (Германия) (47 км)
Погода в Бремерхафене (Германия) (48 км)
Погода на Станции Ufs Deutsche Bucht (Германия) (57 км)
Погода в Санкт-Петер-Ординге (Германия) (60 км)
Погода в Эльперсбюттеле (Германия) (62 км)
Погода на Острове Норденей (Германия) (67 км)
Погода в Бремерфёрде (Германия) (80 км)

Пояснения к столбцам:

Ветер - указаны скорость ветра в м/с - средняя за 10 мин, порывы в срок и между сроками (в фигурных скобках) и направление, откуда дует ветер: С - северный, СВ - северо-восточный, В - восточный, ЮВ - юго-восточный, Ю - южный, ЮЗ - юго-западный, З - западный, СЗ - северо-западный.
Видимость - горизонтальная дальность видимости в метрах или километрах. При видимости от 1 до 10 км при отсутствии осадков обычно наблюдается дымка, при ухудшении видимости до 1 км и менее - туман. В сухую погоду видимость может ухудшаться дымом, пылью или мглою.
Явления - указаны атмосферные явления, наблюдавшиеся в срок или в последний час перед сроком; фигурными скобками обозначены явления, наблюдавшиеся между сроками (за 1-3 часа до срока); квадратными скобками обозначены град или гололедные отложения с указанием их диаметра в мм.
Облачность - указаны через наклонную черту общая и нижняя облачность в баллах и высота нижней границы облаков в метрах; квадратными скобками обозначены формы облаков: Ci - перистые, Cs - перисто-слоистые, Cc - перисто-кучевые, Ac - высококучевые, As - высокослоистые, Sc - слоисто-кучевые, Ns - слоисто-дождевые, Cu - кучевые, Cb - кучево-дождевые. Подробнее классификацию облаков см. в Атласе облаков (PDF).
T - Температура воздуха - температура, измеренная на высоте 2 м над землей.
Td - Температура точки росы - температура, при понижении до которой содержащийся в воздухе водяной пар достигнет насыщения.
f - Относительная влажность воздуха - влажноcть воздуха, измеренная на высоте 2 м над землей.
Te - Эффективная температура - температура, которую ощущает одетый по сезону человек в тени. Характеристика душности погоды. При расчете учитывается влияние влажности воздуха и скорости ветра на теплоощущения человека.
Tes - Эффективная температура на солнце - температура, которую ощущает человек, с поправкой на солнечный нагрев. Характеристика знойности погоды. Зависит от высоты солнца над горизонтом, облачности и скорости ветра. Ночью, в пасмурную погоду, а также при ветре 12 м/с и более поправка равна нулю.
P - Атмосферное давление - приведенное к уровню моря атмосферное давление.
Po - Атмосферное давление - измеренное на уровне метеостанции атмосферное давление.
Tmin - Минимальная температура - минимум температуры воздуха на высоте 2 м над землей.
Tmax - Максимальная температура - максимум температуры воздуха на высоте 2 м над землей.
R - Количество осадков - Количество выпавших осадков за период времени, мм. При наведении курсора мыши на число - период времени, за который выпало указанное количество осадков.
R24 - Количество осадков - Количество выпавших осадков за 24 часа, мм.
S - Снежный покров - Высота снежного покрова, см. При наведении курсора мыши на число - состояние снежного покрова и степень покрытия местности в баллах.